TimeCST,TemperatureF,Dew PointF,Humidity,Sea Level PressureIn,VisibilityMPH,Wind Direction,Wind SpeedMPH,Gust SpeedMPH,PrecipitationIn,Events,Conditions,WindDirDegrees,DateUTC
12:15 AM,57.2,51.8,82,29.97,10.0,Calm,Calm,-,N/A,,Overcast,0,2012-12-07 06:15:00
12:35 AM,57.2,51.8,82,29.97,10.0,SE,6.9,-,N/A,,Overcast,140,2012-12-07 06:35:00
12:55 AM,59.0,51.8,77,29.97,10.0,SE,8.1,-,N/A,,Overcast,140,2012-12-07 06:55:00
1:15 AM,59.0,53.6,82,29.97,10.0,SE,9.2,-,N/A,,Overcast,140,2012-12-07 07:15:00
1:35 AM,59.0,53.6,82,29.97,10.0,SSE,6.9,-,N/A,,Overcast,150,2012-12-07 07:35:00
1:55 AM,59.0,53.6,82,29.97,10.0,SSE,8.1,-,N/A,,Overcast,150,2012-12-07 07:55:00
2:15 AM,59.0,53.6,82,29.97,10.0,SE,8.1,-,N/A,,Overcast,140,2012-12-07 08:15:00
2:35 AM,59.0,53.6,82,29.97,10.0,SE,8.1,-,N/A,,Overcast,140,2012-12-07 08:35:00
2:55 AM,57.2,53.6,88,29.97,10.0,SSE,5.8,-,N/A,,Mostly Cloudy,150,2012-12-07 08:55:00
3:15 AM,55.4,53.6,94,29.98,10.0,SSE,5.8,-,N/A,,Scattered Clouds,150,2012-12-07 09:15:00
3:35 AM,55.4,53.6,94,29.98,10.0,Calm,Calm,-,N/A,,Mostly Cloudy,0,2012-12-07 09:35:00
3:55 AM,55.4,53.6,94,29.97,10.0,Calm,Calm,-,N/A,,Mostly Cloudy,0,2012-12-07 09:55:00
4:15 AM,53.6,53.6,100,29.98,10.0,Calm,Calm,-,N/A,,Mostly Cloudy,0,2012-12-07 10:15:00
4:35 AM,53.6,53.6,100,29.97,10.0,SE,3.5,-,N/A,,Overcast,130,2012-12-07 10:35:00
4:55 AM,55.4,53.6,94,29.98,10.0,Calm,Calm,-,N/A,,Mostly Cloudy,0,2012-12-07 10:55:00
5:15 AM,55.4,53.6,94,29.98,10.0,SE,4.6,-,N/A,,Overcast,140,2012-12-07 11:15:00
5:35 AM,55.4,53.6,94,29.98,10.0,Calm,Calm,-,N/A,,Overcast,0,2012-12-07 11:35:00
5:55 AM,55.4,53.6,94,29.99,10.0,Calm,Calm,-,N/A,,Overcast,0,2012-12-07 11:55:00
6:15 AM,55.4,53.6,94,29.99,10.0,Calm,Calm,-,N/A,,Overcast,0,2012-12-07 12:15:00
6:35 AM,55.4,53.6,94,29.99,10.0,SE,6.9,-,N/A,,Overcast,140,2012-12-07 12:35:00
6:55 AM,55.4,53.6,94,30.00,10.0,SE,5.8,-,N/A,,Overcast,140,2012-12-07 12:55:00
7:15 AM,55.4,53.6,94,30.00,10.0,SE,5.8,-,N/A,,Overcast,140,2012-12-07 13:15:00
7:35 AM,55.4,53.6,94,30.00,10.0,SE,6.9,-,N/A,,Overcast,140,2012-12-07 13:35:00
7:55 AM,55.4,53.6,94,30.01,10.0,SSE,6.9,-,N/A,,Overcast,150,2012-12-07 13:55:00
8:15 AM,55.4,55.4,100,30.00,7.0,SSE,9.2,-,N/A,,Overcast,150,2012-12-07 14:15:00
8:35 AM,57.2,55.4,94,30.01,7.0,SE,10.4,-,N/A,,Overcast,140,2012-12-07 14:35:00
8:55 AM,57.2,55.4,94,30.01,7.0,SSE,10.4,-,N/A,,Overcast,160,2012-12-07 14:55:00
9:15 AM,59.0,55.4,88,30.01,7.0,SSE,6.9,-,N/A,,Overcast,150,2012-12-07 15:15:00
9:35 AM,59.0,55.4,88,30.01,10.0,SSE,8.1,-,N/A,,Overcast,150,2012-12-07 15:35:00
9:55 AM,59.0,55.4,88,30.01,7.0,SSE,8.1,-,N/A,,Overcast,160,2012-12-07 15:55:00
10:15 AM,59.0,57.2,94,30.00,10.0,SSE,6.9,-,N/A,,Overcast,160,2012-12-07 16:15:00
10:35 AM,60.8,57.2,88,29.99,10.0,South,4.6,-,N/A,,Overcast,170,2012-12-07 16:35:00
10:55 AM,60.8,57.2,88,29.99,10.0,SSE,6.9,-,N/A,,Overcast,160,2012-12-07 16:55:00
11:15 AM,60.8,57.2,88,29.98,7.0,SSE,6.9,-,N/A,,Overcast,160,2012-12-07 17:15:00
11:35 AM,60.8,57.2,88,29.98,10.0,SSE,4.6,-,N/A,,Overcast,160,2012-12-07 17:35:00
11:55 AM,60.8,57.2,88,29.97,7.0,SE,3.5,-,N/A,,Overcast,140,2012-12-07 17:55:00
12:15 PM,62.6,59.0,88,29.96,7.0,SE,3.5,-,N/A,,Overcast,140,2012-12-07 18:15:00
12:35 PM,62.6,59.0,88,29.96,10.0,Calm,Calm,-,N/A,,Overcast,0,2012-12-07 18:35:00
1:15 PM,62.6,59.0,88,29.93,10.0,SE,5.8,-,N/A,,Overcast,140,2012-12-07 19:15:00
1:35 PM,62.6,59.0,88,29.92,10.0,SSE,3.5,-,N/A,,Overcast,150,2012-12-07 19:35:00
1:55 PM,62.6,59.0,88,29.92,10.0,SSE,6.9,-,N/A,,Overcast,160,2012-12-07 19:55:00
2:15 PM,64.4,59.0,83,29.91,10.0,SE,4.6,-,N/A,,Overcast,140,2012-12-07 20:15:00
2:35 PM,62.6,59.0,88,29.91,10.0,SSE,4.6,-,N/A,,Overcast,150,2012-12-07 20:35:00
2:55 PM,64.4,59.0,83,29.91,10.0,SSE,3.5,-,N/A,,Mostly Cloudy,160,2012-12-07 20:55:00
3:15 PM,64.4,59.0,83,29.91,10.0,SSE,4.6,-,N/A,,Scattered Clouds,160,2012-12-07 21:15:00
3:35 PM,62.6,59.0,88,29.91,10.0,ESE,3.5,-,N/A,,Mostly Cloudy,120,2012-12-07 21:35:00
3:55 PM,62.6,59.0,88,29.90,10.0,SE,4.6,-,N/A,,Scattered Clouds,140,2012-12-07 21:55:00
4:15 PM,62.6,59.0,88,29.90,10.0,SE,5.8,-,N/A,,Clear,130,2012-12-07 22:15:00
4:35 PM,60.8,59.0,94,29.90,10.0,Calm,Calm,-,N/A,,Scattered Clouds,0,2012-12-07 22:35:00
4:55 PM,60.8,59.0,94,29.91,10.0,Calm,Calm,-,N/A,,Scattered Clouds,0,2012-12-07 22:55:00
5:15 PM,60.8,59.0,94,29.91,10.0,Calm,Calm,-,N/A,,Scattered Clouds,0,2012-12-07 23:15:00
5:35 PM,60.8,57.2,88,29.92,10.0,Calm,Calm,-,N/A,,Clear,0,2012-12-07 23:35:00
5:55 PM,59.0,57.2,94,29.92,7.0,Calm,Calm,-,N/A,,Clear,0,2012-12-07 23:55:00
6:15 PM,59.0,55.4,88,29.92,7.0,Calm,Calm,-,N/A,,Clear,0,2012-12-08 00:15:00
6:35 PM,57.2,55.4,94,29.93,7.0,Calm,Calm,-,N/A,,Clear,0,2012-12-08 00:35:00
6:55 PM,55.4,55.4,100,29.93,3.0,Calm,Calm,-,N/A,,Clear,0,2012-12-08 00:55:00
7:15 PM,55.4,53.6,94,29.93,1.0,Calm,Calm,-,N/A,,Mist,0,2012-12-08 01:15:00
7:35 PM,55.4,53.6,94,29.93,3.0,Calm,Calm,-,N/A,,Scattered Clouds,0,2012-12-08 01:35:00
7:55 PM,55.4,55.4,100,29.93,3.0,Calm,Calm,-,N/A,,Clear,0,2012-12-08 01:55:00
8:15 PM,55.4,55.4,100,29.94,3.0,Calm,Calm,-,N/A,,Clear,0,2012-12-08 02:15:00
8:35 PM,55.4,55.4,100,29.94,3.0,Calm,Calm,-,N/A,,Clear,0,2012-12-08 02:35:00
8:55 PM,55.4,55.4,100,29.94,2.5,Calm,Calm,-,N/A,,Clear,0,2012-12-08 02:55:00
9:15 PM,55.4,55.4,100,29.95,2.5,Calm,Calm,-,N/A,,Clear,0,2012-12-08 03:15:00
9:35 PM,55.4,55.4,100,29.95,1.8,Calm,Calm,-,N/A,,Mist,0,2012-12-08 03:35:00
9:55 PM,55.4,55.4,100,29.94,2.5,Calm,Calm,-,N/A,,Clear,0,2012-12-08 03:55:00
10:15 PM,55.4,55.4,100,29.95,2.5,Calm,Calm,-,N/A,,Clear,0,2012-12-08 04:15:00
10:35 PM,55.4,55.4,100,29.94,2.5,Calm,Calm,-,N/A,,Clear,0,2012-12-08 04:35:00
10:55 PM,55.4,55.4,100,29.95,3.0,Calm,Calm,-,N/A,,Clear,0,2012-12-08 04:55:00
11:15 PM,55.4,55.4,100,29.94,1.5,Calm,Calm,-,N/A,,Mostly Cloudy,0,2012-12-08 05:15:00
11:35 PM,55.4,55.4,100,29.94,0.5,Calm,Calm,-,N/A,Fog,Fog,0,2012-12-08 05:35:00
11:55 PM,55.4,55.4,100,29.94,0.5,Calm,Calm,-,N/A,Fog,Fog,0,2012-12-08 05:55:00